Home > Weather > Whitby > Past weeks

Flag for Canada Past Weather in Whitby, Ontario, Canada — Yesterday and Last 2 Weeks

Now
75 °F

Scattered clouds.


Feels Like: 78 °F
Forecast: 59 / 72 °F
Wind: 14 mph from Northwest

Location: Toronto Buttonville

Current Time: May 31, 2016 at 3:55:34 PM

Latest Report: May 31, 2016 at 3:00 PM


Visibility: 15 mi

Pressure: 30.00 "Hg

Humidity: 41%

Dew Point: 50 °F

Location of WhitbyLocation

Past Weather in Whitby — Graph

°F

Whitby Temperature Yesterday

Maximum temperature yesterday: 79 °F (at 12:00 PM)
Minimum temperature yesterday: 66 °F (at 4:00 AM)
Average temperature yesterday: 73 °F

High & Low Weather Summary for the Past Weeks

 TemperatureHumidityPressure
High90 °F (May 28, 4:00 PM)100% (May 16, 11:00 PM)30.29 "Hg (May 16, 11:00 PM)
Low39 °F (May 17, 5:00 AM)23% (May 20, 4:00 PM)29.88 "Hg (May 30, 2:00 AM)
Average66 °F55%30.04 "Hg
* Reported May 16 2:00 PM — May 31 2:00 PM, Whitby, Weather by CustomWeather, © 2016

Note: Actual official high and low records may vary slightly from our data, if they occured in-between our weather recording intervals... More about our weather records

Advertising

Whitby Weather History for the Previous 24 Hours

Scroll right to see more
 ConditionsComfort  
Time TempWeatherWind HumidityBarometerVisibility
2:00 PM
Tue, May 31
75 °FPassing clouds.12 mph39%30.00 "Hg15 mi
1:00 PM77 °FPassing clouds.14 mph39%30.00 "Hg15 mi
12:00 PM75 °FPassing clouds.21 mph34%30.00 "Hg15 mi
11:00 AM75 °FPassing clouds.14 mph39%30.00 "Hg15 mi
10:00 AM73 °FPassing clouds.9 mph44%30.00 "Hg15 mi
9:00 AM72 °FPassing clouds.13 mph47%30.00 "Hg15 mi
8:00 AM68 °FPassing clouds.2 mph53%29.99 "Hg15 mi
7:00 AM63 °FPassing clouds.No wind64%29.99 "Hg15 mi
6:00 AM61 °FPassing clouds.No wind68%29.98 "Hg15 mi
5:00 AM61 °FPassing clouds.2 mph68%29.97 "Hg15 mi
4:00 AM63 °FPassing clouds.3 mph64%29.96 "Hg15 mi
3:00 AM63 °FPassing clouds.8 mph64%29.96 "Hg15 mi
2:00 AM64 °FPassing clouds.7 mph64%29.96 "Hg15 mi
1:00 AM64 °FClear.5 mph64%29.97 "Hg15 mi
12:00 AM64 °FPassing clouds.6 mph64%29.97 "Hg15 mi
11:00 PM
Mon, May 30
66 °FPassing clouds.6 mph60%29.96 "Hg15 mi
10:00 PM72 °FPassing clouds.2 mph47%29.95 "Hg15 mi
9:00 PM73 °FPassing clouds.3 mph41%29.94 "Hg15 mi
8:00 PM75 °FPassing clouds.7 mph36%29.93 "Hg15 mi
7:00 PM77 °FPassing clouds.8 mph34%29.92 "Hg15 mi
6:00 PM79 °FPassing clouds.12 mph32%29.93 "Hg15 mi
5:00 PM79 °FScattered clouds.15 mph37%29.92 "Hg15 mi
4:00 PM77 °FScattered clouds.18 mph42%29.92 "Hg15 mi
3:00 PM79 °FBroken clouds.13 mph45%29.91 "Hg15 mi
Weather by CustomWeather, © 2016

See weather overviewHow to use our weather pages